This demonstration page uses our WeatherBlox Daily Observations layout. Learn more.

Left ArrowRight Arrow

Hourly Observations for December 11, 2021

Temp ( °F °C ) Dew Point ( °F °C ) Humidity (%) Winds ( mph kmh ) Pressure ( in mb ) Visibility ( mi km ) Precip ( " mm )
12:56 am 00:56 Cloudy 26 -3.3 22 -5.6 84 84 WNW 14 22 29.97 1015 10 16 0.00 0.00
1:56 am 01:56 Cloudy 27 -2.8 23 -5 85 85 WNW 15 24 29.98 1015 10 16 0.00 0.00
2:56 am 02:56 Mostly Cloudy 26 -3.3 21 -6.1 81 81 WNW 15 24 30.02 1017 10 16 0.00 0.00
3:56 am 03:56 Clear 23 -5 19 -7.2 85 85 W 13 20 30.03 1017 10 16 0.00 0.00
4:56 am 04:56 Clear 24 -4.4 18 -7.8 77 77 W 13 20 30.04 1017 10 16 0.00 0.00
5:56 am 05:56 Clear 22 -5.6 17 -8.3 82 82 WNW 14 22 30.04 1017 10 16 0.00 0.00
6:56 am 06:56 Clear 21 -6.1 15 -9.4 78 78 W 13 20 30.06 1018 10 16 0.00 0.00
7:56 am 07:56 Sunny 21 -6.1 13 -10.6 71 71 W 12 19 30.08 1019 10 16 0.00 0.00
8:56 am 08:56 Sunny 24 -4.4 14 -10 65 65 WNW 14 22 30.08 1019 10 16 0.00 0.00
9:56 am 09:56 Sunny 27 -2.8 15 -9.4 61 61 W 15 24 30.10 1019 10 16 0.00 0.00
10:56 am 10:56 Sunny 31 -0.6 17 -8.3 56 56 W 14 22 30.10 1019 10 16 0.00 0.00
11:56 am 11:56 Sunny 32 0 17 -8.3 54 54 W 16 26 30.11 1020 10 16 0.00 0.00
12:56 pm 12:56 Sunny 34 1.1 22 -5.6 61 61 SW 10 17 30.08 1019 10 16 0.00 0.00
1:56 pm 13:56 Sunny 36 2.2 23 -5 59 59 WSW 13 20 30.06 1018 10 16 0.00 0.00
2:56 pm 14:56 Sunny 39 3.9 24 -4.4 55 55 SW 12 19 30.04 1017 10 16 0.00 0.00
3:56 pm 15:56 Sunny 38 3.3 25 -3.9 60 60 SW 13 20 30.03 1017 10 16 0.00 0.00
4:56 pm 16:56 Sunny 36 2.2 24 -4.4 62 62 SW 10 17 30.04 1017 10 16 0.00 0.00
5:56 pm 17:56 Clear 33 0.6 22 -5.6 64 64 SSW 10 17 30.04 1017 10 16 0.00 0.00
6:56 pm 18:56 Clear 33 0.6 22 -5.6 64 64 SSW 8 13 30.05 1018 10 16 0.00 0.00
7:56 pm 19:56 Clear 27 -2.8 20 -6.7 75 75 S 10 17 30.05 1018 10 16 0.00 0.00
8:56 pm 20:56 Clear 31 -0.6 20 -6.7 64 64 SSW 13 20 30.02 1017 10 16 0.00 0.00
9:56 pm 21:56 Clear 35 1.7 14 -10 42 42 SSW 18 30 30.01 1016 10 16 0.00 0.00
10:56 pm 22:56 Clear 32 0 16 -8.9 52 52 SSW 14 22 30.00 1016 10 16 0.00 0.00
11:56 pm 23:56 Clear 31 -0.6 16 -8.9 54 54 SSW 14 22 30.00 1016 10 16 0.00 0.00

Powered by AerisWeather